[[{"header":{"parameterUnit":"m.s-1","parameterCategory":1,"la1":30.2991,"la2":30.254,"lo1":-89.0895,"lo2":-89.0444,"dx":0.0017,"dy":0.0017,"nx":28,"ny":28,"refTime":"2022-12-23T15:00:00:Z","depth":0,"parameterNumber":2,"parameterNumberName":"U-component_of_WINDS"},"data":[0,0,0,0,0,0,0,0,0,0,0,0,0,0,0,0,0,0,0,0,0,0,0,0,0,0,0,0,0,0,0,0,0,0,0,0,0,0,0,0,0,0,0,0,0,0,0,0,0,0,0,0,0,0,0,0,0,0,1.204,1.2039,0,1.2019,1.2018,1.2018,1.2005,1.2005,1.2005,1.2005,1.1981,1.1981,1.198,0,0,0,0,0,0,0,0,0,0,0,0,0,1.2067,1.2067,1.204,1.2039,1.2039,1.2019,1.2018,1.2018,1.2005,1.2005,1.2005,1.2005,1.1982,1.1981,1.198,0,0,0,0,0,0,0,0,0,0,0,0,0,1.2051,1.2066,1.204,1.203,1.2029,1.2019,1.2018,1.2018,1.2005,1.2005,1.2005,1.2005,1.1982,1.1981,1.198,1.1977,0,0,1.1978,1.1977,0,0,0,0,0,0,0,0,1.2052,1.205,1.2032,1.2031,1.203,1.2014,1.2019,1.2004,1.2005,1.2014,1.2005,1.2005,1.1992,1.1991,1.1987,1.1976,1.1975,1.1977,1.1977,1.1977,1.1976,0,0,0,0,0,0,0,1.2053,1.2051,1.2031,1.2032,1.203,1.2027,1.2024,1.2016,1.2004,1.2013,1.2012,1.201,1.1992,1.1988,1.1986,1.1974,1.1978,1.1977,1.1976,1.1976,1.196,1.196,0,0,0,0,0,0,1.2056,1.2052,1.2032,1.2031,1.2041,1.2026,1.2024,1.2019,1.2004,1.2002,1.201,1.201,1.1989,1.1987,1.1985,1.1981,1.1977,1.1976,1.1975,1.196,1.196,1.196,0,0,0,0,0,0,1.2057,1.2055,1.2033,1.2041,1.2038,1.2026,1.2021,1.2019,1.2015,1.2002,1.1999,1.2009,1.1989,1.1986,1.1979,1.198,1.1975,1.1975,1.196,1.196,1.196,1.1972,0,0,0,0,0,0,1.2058,1.2055,1.2054,1.2041,1.2038,1.2027,1.2021,1.2019,1.2014,1.2013,1.1999,1.1997,1.1989,1.1981,1.1979,1.1979,1.1974,1.196,1.196,1.196,1.1971,1.1972,1.1973,0,0,0,0,0,1.2059,1.2057,1.2054,1.2051,1.2036,1.2028,1.2025,1.2016,1.2014,1.2012,1.2004,1.1998,1.198,1.198,1.1978,1.1977,1.196,1.196,1.196,1.1971,1.1972,1.1973,0,0,0,0,0,0,1.2069,1.2055,1.2051,1.2046,1.2038,1.2025,1.2023,1.2018,1.201,1.2009,1.1998,1.1995,1.1989,1.1982,1.1983,1.1974,1.1969,1.1969,1.1978,1.1979,1.198,1.1981,1.1973,0,0,0,0,0,1.2071,1.2065,1.2053,1.2049,1.2046,1.2035,1.2031,1.2025,1.2016,1.2013,1.2004,1.1995,1.1988,1.1983,1.1976,1.197,1.1967,1.1969,1.197,1.1971,1.197,1.1968,1.1968,1.1961,1.1961,1.1961,0,0,1.2074,1.2066,1.2063,1.2051,1.2045,1.2039,1.2033,1.2027,1.2023,1.2012,1.2005,1.1998,1.1988,1.1982,1.1978,1.1976,1.1972,1.1971,1.1972,1.1971,1.1968,1.1969,1.1969,1.1961,1.1961,1.1961,0,0,1.2076,1.207,1.2066,1.206,1.205,1.2044,1.2043,1.2031,1.2027,1.202,1.2012,1.2006,1.1994,1.1987,1.1982,1.1984,1.1977,1.1982,1.1986,1.1983,1.1984,1.1984,1.1985,1.1985,1.1981,1.1982,1.1982,0,1.2081,1.2073,1.2065,1.206,1.2055,1.2046,1.2043,1.2037,1.2025,1.2022,1.2019,1.2004,1.1996,1.1989,1.199,1.1986,1.1984,1.1983,1.1985,1.1985,1.1985,1.1986,1.1986,1.1982,1.1982,1.1982,1.1982,0,1.208,1.2074,1.2072,1.2062,1.2057,1.2053,1.2044,1.204,1.2035,1.2028,1.2021,1.2012,1.2003,1.2001,1.1995,1.1992,1.1991,1.1987,1.1982,1.1987,1.1987,1.1987,1.1983,1.1983,1.1983,1.1982,0,0,1.2087,1.2074,1.2073,1.2069,1.2058,1.2053,1.2049,1.2041,1.2038,1.203,1.2026,1.2016,1.2012,1.2007,1.2,1.1998,1.2,1.1994,1.1994,1.1995,1.1997,1.2,1.2001,1.1997,1.1997,1.1997,1.1998,0,1.2088,1.208,1.2073,1.2067,1.2062,1.2054,1.205,1.2043,1.2037,1.2032,1.2025,1.2019,1.2014,1.2011,1.2008,1.2001,1.2001,1.2,1.1992,1.1992,1.1994,1.2001,1.2004,1.2006,1.1998,1.1998,1.1998,0,1.2088,1.2082,1.2076,1.2067,1.2064,1.2061,1.2054,1.2049,1.2041,1.2036,1.2031,1.2024,1.2019,1.2016,1.2008,1.2008,1.2005,1.2,1.2,1.1999,1.1995,1.1999,1.2006,1.2006,1.1998,1.1998,1.1998,0,1.2094,1.2084,1.208,1.2076,1.2065,1.2063,1.2059,1.2051,1.2046,1.204,1.2037,1.203,1.2025,1.202,1.2011,1.201,1.2005,1.2001,1.2001,1.2001,1.1999,1.2,1.2006,1.1998,1.1998,1.1998,1.1998,0,1.2096,1.2093,1.2083,1.208,1.2076,1.2068,1.2064,1.2059,1.2052,1.2048,1.204,1.2036,1.2026,1.2021,1.2014,1.2009,1.2007,1.2004,1.2002,1.2004,1.2004,1.2001,1.2,1.1998,1.1998,1.1998,1.1998,0,1.2102,1.2095,1.2089,1.208,1.2078,1.2075,1.2067,1.2064,1.2058,1.2053,1.2051,1.2042,1.2035,1.2027,1.2017,1.2013,1.2009,1.2006,1.2012,1.2011,1.2011,1.2011,1.2015,1.2015,1.2008,1.2008,1.2008,0,1.2103,1.2101,1.2091,1.2089,1.2084,1.2079,1.2076,1.2068,1.2064,1.2055,1.2053,1.2047,1.2041,1.2031,1.2023,1.2016,1.2013,1.2015,1.2012,1.2014,1.2013,1.2013,1.2013,1.2015,1.2015,1.2016,1.2016,0,1.2106,1.2104,1.2099,1.2093,1.2088,1.2083,1.2078,1.2075,1.2066,1.2063,1.2057,1.2052,1.2043,1.2037,1.2029,1.2024,1.2018,1.2017,1.2017,1.2018,1.2022,1.202,1.2013,1.2017,1.2017,1.2016,1.2016,1.2016,1.211,1.2108,1.2101,1.2096,1.2091,1.2086,1.2083,1.2077,1.2072,1.2065,1.2061,1.2055,1.2048,1.2037,1.2032,1.2027,1.2025,1.2024,1.2024,1.2024,1.2025,1.2023,1.2026,1.2026,1.2026,1.2026,1.2025,0,1.2113,1.2109,1.2104,1.2097,1.2093,1.2089,1.2083,1.208,1.2075,1.2069,1.2064,1.2057,1.2051,1.2043,1.2036,1.2034,1.2031,1.2033,1.2032,1.2031,1.2027,1.2028,1.2035,1.2035,1.2035,1.2035,1.2035,1.2035,1.2114,1.211,1.2106,1.21,1.2095,1.209,1.2087,1.2082,1.2078,1.2071,1.2066,1.2061,1.2055,1.2048,1.2042,1.204,1.2037,1.2039,1.2036,1.2032,1.2031,1.2031,1.2031,1.2039,1.2039,1.2041,1.2041,1.2041]},{"header":{"parameterUnit":"m.s-1","parameterCategory":1,"la1":30.2991,"la2":30.254,"lo1":-89.0895,"lo2":-89.0444,"dx":0.0017,"dy":0.0017,"nx":28,"ny":28,"refTime":"2022-12-23T15:00:00:Z","depth":0,"parameterNumber":3,"parameterNumberName":"V-component_of_WINDS"},"data":[0,0,0,0,0,0,0,0,0,0,0,0,0,0,0,0,0,0,0,0,0,0,0,0,0,0,0,0,0,0,0,0,0,0,0,0,0,0,0,0,0,0,0,0,0,0,0,0,0,0,0,0,0,0,0,0,0,0,-5.3196,-5.3197,0,-5.3292,-5.3293,-5.3294,-5.3285,-5.3284,-5.3282,-5.3281,-5.3374,-5.3378,-5.3381,0,0,0,0,0,0,0,0,0,0,0,0,0,-5.3001,-5.3005,-5.3196,-5.3197,-5.3198,-5.3291,-5.3293,-5.3294,-5.3286,-5.3284,-5.3282,-5.328,-5.3373,-5.3377,-5.3382,0,0,0,0,0,0,0,0,0,0,0,0,0,-5.309,-5.3006,-5.3195,-5.3205,-5.3207,-5.3291,-5.3293,-5.3294,-5.3286,-5.3284,-5.3282,-5.328,-5.3371,-5.3377,-5.3382,-5.3461,0,0,-5.34,-5.3402,0,0,0,0,0,0,0,0,-5.3085,-5.3097,-5.3203,-5.3205,-5.3207,-5.3274,-5.3258,-5.335,-5.3286,-5.3256,-5.3281,-5.3278,-5.3342,-5.335,-5.3373,-5.3466,-5.347,-5.34,-5.3404,-5.3406,-5.3408,0,0,0,0,0,0,0,-5.3079,-5.3093,-5.3233,-5.3204,-5.3207,-5.3204,-5.3214,-5.3276,-5.331,-5.3258,-5.3258,-5.327,-5.3343,-5.3367,-5.3375,-5.3471,-5.34,-5.3405,-5.3409,-5.3411,-5.3635,-5.3637,0,0,0,0,0,0,-5.3071,-5.3088,-5.323,-5.3236,-5.314,-5.3209,-5.322,-5.3255,-5.3309,-5.3315,-5.3271,-5.3269,-5.3358,-5.3368,-5.3378,-5.3476,-5.3406,-5.3412,-5.3415,-5.3633,-5.3636,-5.3638,0,0,0,0,0,0,-5.3067,-5.3084,-5.3226,-5.3162,-5.318,-5.3215,-5.3253,-5.3258,-5.3282,-5.3319,-5.3325,-5.329,-5.3357,-5.337,-5.3441,-5.3479,-5.3414,-5.3419,-5.363,-5.3633,-5.3637,-5.367,0,0,0,0,0,0,-5.3061,-5.3083,-5.3114,-5.3163,-5.3184,-5.3289,-5.3256,-5.3261,-5.3293,-5.329,-5.3338,-5.3344,-5.3356,-5.3433,-5.3447,-5.3485,-5.3424,-5.3626,-5.3631,-5.3636,-5.3666,-5.3675,-5.3682,0,0,0,0,0,-5.3055,-5.3117,-5.3115,-5.3132,-5.3223,-5.3292,-5.3303,-5.3318,-5.3296,-5.3327,-5.3351,-5.3343,-5.3472,-5.344,-5.3456,-5.3497,-5.3624,-5.363,-5.3635,-5.3662,-5.3673,-5.3682,0,0,0,0,0,0,-5.3069,-5.3124,-5.3122,-5.3203,-5.3243,-5.329,-5.333,-5.3328,-5.3373,-5.3369,-5.3383,-5.3394,-5.3467,-5.3488,-5.3452,-5.3577,-5.3545,-5.3554,-5.356,-5.357,-5.3578,-5.3572,-5.3429,0,0,0,0,0,-5.3082,-5.3135,-5.3179,-5.3246,-5.3266,-5.3295,-5.3325,-5.3333,-5.3374,-5.339,-5.3419,-5.3458,-5.3508,-5.354,-5.3588,-5.3669,-5.3679,-5.3705,-5.3713,-5.3719,-5.3727,-5.3773,-5.3785,-5.3657,-5.3657,-5.3657,0,0,-5.3109,-5.3145,-5.3177,-5.325,-5.3282,-5.3335,-5.3309,-5.3365,-5.3405,-5.3398,-5.3469,-5.3491,-5.3536,-5.3613,-5.3648,-5.3633,-5.3765,-5.3726,-5.3731,-5.3735,-5.378,-5.3792,-5.3803,-5.3661,-5.366,-5.3659,0,0,-5.3185,-5.3217,-5.3278,-5.3311,-5.3361,-5.338,-5.3394,-5.3442,-5.3458,-5.3529,-5.3526,-5.3572,-5.3657,-5.3689,-5.3717,-5.3808,-5.3802,-5.3822,-5.3865,-5.3909,-5.3919,-5.3928,-5.3962,-5.3974,-5.383,-5.383,-5.383,0,-5.3211,-5.3293,-5.3309,-5.3367,-5.34,-5.3399,-5.346,-5.3491,-5.3552,-5.3574,-5.3557,-5.3666,-5.3695,-5.3781,-5.3803,-5.3825,-5.3842,-5.3817,-5.3917,-5.3926,-5.3935,-5.3967,-5.3979,-5.3832,-5.3832,-5.3832,-5.3832,0,-5.3323,-5.338,-5.3422,-5.3485,-5.3522,-5.3581,-5.3606,-5.3641,-5.3647,-5.3667,-5.374,-5.3776,-5.3831,-5.3852,-5.3856,-5.3939,-5.3928,-5.3914,-5.3882,-5.3949,-5.3979,-5.3992,-5.3836,-5.3835,-5.3834,-5.3834,0,0,-5.341,-5.3483,-5.3498,-5.3528,-5.3583,-5.3627,-5.3686,-5.3743,-5.3773,-5.3816,-5.3866,-5.3939,-5.3927,-5.3958,-5.3966,-5.4006,-5.4077,-5.3987,-5.3988,-5.4003,-5.4171,-5.4182,-5.4196,-5.4073,-5.4076,-5.4078,-5.4168,0,-5.3492,-5.36,-5.3617,-5.3711,-5.3764,-5.3765,-5.3817,-5.3856,-5.3877,-5.3924,-5.3946,-5.3998,-5.3977,-5.3997,-5.4035,-5.406,-5.4111,-5.4054,-5.412,-5.4122,-5.411,-5.4212,-5.4224,-5.4307,-5.418,-5.4182,-5.4183,0,-5.3603,-5.3652,-5.3752,-5.3803,-5.3825,-5.3872,-5.3926,-5.3971,-5.4016,-5.4028,-5.4065,-5.4069,-5.413,-5.4096,-5.418,-5.4141,-5.4169,-5.4185,-5.4188,-5.4195,-5.4157,-5.4223,-5.4334,-5.4347,-5.4202,-5.42,-5.4199,0,-5.3658,-5.3748,-5.3821,-5.3846,-5.3906,-5.3939,-5.3965,-5.4008,-5.4041,-5.4088,-5.411,-5.4163,-5.4192,-5.4232,-5.4249,-5.4223,-5.4333,-5.43,-5.4345,-5.4345,-5.4368,-5.4367,-5.4486,-5.4385,-5.4385,-5.4384,-5.4384,0,-5.3749,-5.381,-5.3847,-5.3891,-5.396,-5.3979,-5.4046,-5.4071,-5.411,-5.4158,-5.4161,-5.4206,-5.4227,-5.4275,-5.4289,-5.4357,-5.437,-5.4381,-5.4384,-5.4382,-5.438,-5.44,-5.4395,-5.4388,-5.4387,-5.4386,-5.4386,0,-5.3822,-5.3849,-5.3928,-5.398,-5.3994,-5.4043,-5.4086,-5.4129,-5.415,-5.4212,-5.4227,-5.426,-5.4318,-5.434,-5.4408,-5.4418,-5.4497,-5.4495,-5.4483,-5.4484,-5.4528,-5.4524,-5.4665,-5.4685,-5.457,-5.4571,-5.4572,0,-5.3878,-5.3926,-5.3984,-5.4018,-5.4047,-5.4101,-5.4136,-5.4157,-5.4193,-5.4249,-5.4285,-5.4342,-5.439,-5.4481,-5.451,-5.4563,-5.4562,-5.4609,-5.457,-5.4567,-5.4565,-5.4562,-5.4567,-5.4616,-5.4617,-5.4618,-5.4618,0,-5.3976,-5.3988,-5.404,-5.4097,-5.414,-5.4186,-5.4229,-5.4257,-5.4284,-5.4324,-5.4384,-5.4421,-5.4493,-5.4551,-5.4606,-5.4631,-5.463,-5.463,-5.4644,-5.4642,-5.4634,-5.464,-5.4503,-5.4627,-5.4626,-5.4625,-5.4625,-5.4625,-5.4044,-5.4087,-5.4136,-5.4194,-5.423,-5.4271,-5.4315,-5.4343,-5.4394,-5.4456,-5.4464,-5.4529,-5.4573,-5.4647,-5.4675,-5.4725,-5.4713,-5.4732,-5.4737,-5.4742,-5.4745,-5.4625,-5.4735,-5.4735,-5.4735,-5.4734,-5.4734,0,-5.4143,-5.4175,-5.4228,-5.4292,-5.4337,-5.4334,-5.4383,-5.4421,-5.4479,-5.4521,-5.4569,-5.4638,-5.4694,-5.4729,-5.4785,-5.4818,-5.4819,-5.4832,-5.483,-5.4837,-5.4753,-5.4736,-5.4831,-5.4831,-5.4831,-5.4831,-5.4831,-5.4831,-5.42,-5.4274,-5.4292,-5.4384,-5.4414,-5.448,-5.4508,-5.4546,-5.4581,-5.4659,-5.4707,-5.473,-5.4769,-5.4828,-5.488,-5.4888,-5.4909,-5.4924,-5.4931,-5.4852,-5.4842,-5.4833,-5.4817,-5.4928,-5.4928,-5.5011,-5.5012,-5.5013]}]]